Language: 


Des rapports , des résumés tant et plus, au choix de chacun....


Données Historiques de Météogheer
Journalier Rapport pour Janvier 24, 2018 Unitée:  Impériale    Métrique   Les deux
Suivant Jour »
Journalier Hebdomadaire Mensuel Annuel Sur mesure
  Max: Min: Moyenne:
Température: 58.8 °F 32 °F 53.6 °F
Point de rosée: 55.4 °F 44.6 °F 52 °F
Humidité: 98% 0% 88%
Vent: 32.7mph 0mph 11.2mph
Rafales: 32.7mph - -
Vent- - SW
Pression: 30.1 in 29.7 in -
Pluie: 0.17 in    
Historical Graphs
 
 
Données tabulaires pour Janvier 24, 2018
Heure Température Point de rosée Pression Vent Vent Rafales Humidité Pluie Taux (Horaire) Conditions
00:02 53.2 °F 53.6 °F 30 in SSW 6.5 mph 6.5 mph 98% 0.02 in
00:07 53.4 °F 53.6 °F 30 in SSW 6.5 mph 6.5 mph 98% 0.04 in
00:17 53.4 °F 53.6 °F 30 in SSW 6.5 mph 6.5 mph 98% 0.04 in
00:22 53.4 °F 53.6 °F 30 in SW 8.5 mph 8.5 mph 98% 0.04 in
00:27 53.4 °F 53.6 °F 30 in SW 8.5 mph 8.5 mph 98% 0.04 in
00:32 53.4 °F 53.6 °F 30 in SW 8.5 mph 8.5 mph 98% 0.03 in
00:43 53.4 °F 53.6 °F 30 in SW 8.5 mph 8.5 mph 98% 0.03 in
00:48 53.4 °F 53.6 °F 30 in SW 8.5 mph 8.5 mph 98% 0.03 in
00:53 53.6 °F 53.6 °F 30 in SW 8.5 mph 8.5 mph 98% 0.01 in
00:58 53.6 °F 53.6 °F 30 in SW 8.5 mph 8.5 mph 98% 0.03 in
01:03 53.6 °F 53.6 °F 30 in SW 8.5 mph 8.5 mph 98% 0.03 in
01:08 53.6 °F 53.6 °F 30 in SW 8.5 mph 8.5 mph 98% 0.01 in
01:13 53.6 °F 53.6 °F 30 in SW 8.5 mph 8.5 mph 98% 0.01 in
01:18 53.6 °F 53.6 °F 30 in SW 8.5 mph 8.5 mph 98% 0.01 in
01:23 53.6 °F 53.6 °F 30 in SW 8.5 mph 8.5 mph 98% 0.01 in
01:28 53.6 °F 53.6 °F 30 in SW 8.5 mph 8.5 mph 98% 0.01 in
01:33 53.6 °F 53.6 °F 30 in SW 8.5 mph 8.5 mph 98% 0.01 in
01:38 53.6 °F 53.6 °F 30 in SW 8.5 mph 8.5 mph 98% 0.01 in
01:48 53.6 °F 53.6 °F 30 in SW 8.5 mph 8.5 mph 98% 0.01 in
01:53 53.6 °F 53.6 °F 30 in SW 8.5 mph 8.5 mph 98% 0.01 in
02:03 53.8 °F 53.6 °F 30 in SW 8.5 mph 8.5 mph 98% 0 in
02:08 53.8 °F 53.6 °F 30 in SW 8.5 mph 8.5 mph 98% 0 in
02:13 53.8 °F 53.6 °F 30 in SW 8.5 mph 8.5 mph 98% 0.01 in
02:18 53.6 °F 53.6 °F 30 in SW 8.5 mph 8.5 mph 98% 0.01 in
02:23 53.8 °F 53.6 °F 30 in SW 8.5 mph 8.5 mph 98% 0.01 in
02:33 53.6 °F 53.6 °F 30.1 in SW 8.5 mph 8.5 mph 98% 0.01 in
02:38 53.6 °F 53.6 °F 30.1 in SW 8.5 mph 8.5 mph 98% 0.01 in
02:43 53.6 °F 53.6 °F 30.1 in SW 8.5 mph 8.5 mph 98% 0.01 in
02:48 53.6 °F 53.6 °F 30 in SW 8.5 mph 8.5 mph 98% 0.01 in
02:53 53.6 °F 53.6 °F 30 in SW 8.5 mph 8.5 mph 98% 0.01 in
02:58 53.6 °F 53.6 °F 30 in SW 8.5 mph 8.5 mph 98% 0.01 in
03:03 53.6 °F 53.6 °F 30 in SW 8.5 mph 8.5 mph 98% 0.01 in
03:08 53.6 °F 53.6 °F 30 in SW 8.5 mph 8.5 mph 98% 0.01 in
03:13 53.6 °F 53.6 °F 30 in SW 8.5 mph 8.5 mph 98% 0 in
03:18 53.6 °F 53.6 °F 30 in SW 8.5 mph 8.5 mph 98% 0 in
03:23 53.6 °F 53.6 °F 30 in SW 8.5 mph 8.5 mph 98% 0 in
03:29 53.6 °F 53.6 °F 30 in SW 8.5 mph 8.5 mph 98% 0 in
03:34 53.6 °F 53.6 °F 30 in SW 8.5 mph 8.5 mph 98% 0 in
03:39 53.8 °F 53.6 °F 30 in SW 8.5 mph 8.5 mph 98% 0 in
03:44 53.6 °F 53.6 °F 30 in SW 8.5 mph 8.5 mph 98% 0 in
03:49 53.8 °F 53.6 °F 30 in SW 8.5 mph 8.5 mph 98% 0 in
03:54 53.8 °F 53.6 °F 30 in SW 8.5 mph 8.5 mph 98% 0 in
03:59 53.8 °F 53.6 °F 30 in SW 8.5 mph 8.5 mph 98% 0 in
04:04 53.8 °F 53.6 °F 30 in SW 8.5 mph 8.5 mph 98% 0 in
04:09 53.8 °F 53.6 °F 30 in SW 8.5 mph 8.5 mph 98% 0 in
04:14 54 °F 53.6 °F 30 in SW 8.5 mph 8.5 mph 98% 0 in
04:19 54 °F 53.6 °F 30 in SW 8.5 mph 8.5 mph 98% 0 in
04:24 54 °F 53.6 °F 30 in SW 8.5 mph 8.5 mph 98% 0 in
04:27 54 °F 53.6 °F 30 in SW 8.5 mph 8.5 mph 98% 0 in
04:32 54 °F 53.6 °F 30 in SSW 8.7 mph 8.7 mph 98% 0 in
04:37 54 °F 53.6 °F 30 in SSW 9.8 mph 10.3 mph 98% 0 in
04:47 54.1 °F 55.4 °F 30 in SSW 8.5 mph 10.1 mph 98% 0 in
04:52 54.1 °F 55.4 °F 30 in SSW 10.5 mph 10.5 mph 98% 0 in
04:57 54.1 °F 55.4 °F 30 in SW 9.2 mph 10.5 mph 98% 0 in
05:02 54.3 °F 55.4 °F 30 in SW 9.2 mph 10.1 mph 98% 0 in
05:07 54.1 °F 55.4 °F 30 in SW 5.6 mph 10.7 mph 98% 0 in
05:12 54.1 °F 55.4 °F 30 in South 8.1 mph 13.4 mph 98% 0 in
05:17 54.3 °F 55.4 °F 29.9 in SSW 9.8 mph 13.4 mph 98% 0 in
05:22 54.3 °F 55.4 °F 29.9 in SSW 7.2 mph 11 mph 98% 0 in
05:27 54.3 °F 55.4 °F 29.9 in South 9.8 mph 12.3 mph 98% 0 in
05:32 54.3 °F 55.4 °F 30 in SW 6.5 mph 12.3 mph 98% 0 in
05:37 54.3 °F 55.4 °F 30 in SSW 8.7 mph 8.7 mph 98% 0 in
05:42 54.3 °F 55.4 °F 30 in WSW 7.8 mph 9.6 mph 98% 0 in
05:47 54.3 °F 55.4 °F 30 in SW 7.4 mph 12.8 mph 98% 0 in
05:52 54.5 °F 55.4 °F 30 in South 12.8 mph 12.8 mph 98% 0 in
05:57 54.3 °F 55.4 °F 30 in SSW 8.7 mph 12.8 mph 98% 0 in
06:13 54.3 °F 55.4 °F 30 in SSW 5.6 mph 9.6 mph 98% 0 in
06:18 54.3 °F 55.4 °F 29.9 in SSW 9.8 mph 9.8 mph 98% 0 in
06:23 54.3 °F 55.4 °F 29.9 in SW 9.2 mph 9.8 mph 98% 0 in
06:28 54.3 °F 55.4 °F 29.9 in WSW 6 mph 12.5 mph 98% 0 in
06:33 54.3 °F 55.4 °F 29.9 in South 8.5 mph 12.5 mph 98% 0 in
06:43 54.3 °F 55.4 °F 29.9 in SSW 9.8 mph 11.2 mph 98% 0 in
06:48 54.5 °F 55.4 °F 29.9 in SW 6.5 mph 14.1 mph 98% 0 in
06:53 54.5 °F 55.4 °F 29.9 in SSW 5.6 mph 14.1 mph 98% 0 in
06:58 54.5 °F 55.4 °F 29.9 in SW 10.5 mph 11 mph 98% 0 in
07:03 54.5 °F 55.4 °F 29.9 in SSW 12.3 mph 12.3 mph 98% 0 in
07:08 54.5 °F 55.4 °F 29.9 in SW 10.3 mph 12.8 mph 98% 0 in
07:13 54.5 °F 55.4 °F 29.9 in WSW 12.5 mph 13.4 mph 98% 0 in
07:23 54.7 °F 55.4 °F 29.9 in SSW 9.8 mph 12.5 mph 98% 0 in
07:28 54.7 °F 55.4 °F 29.9 in SSW 9.8 mph 9.8 mph 98% 0 in
07:38 54.7 °F 55.4 °F 30 in SSW 9.8 mph 9.8 mph 98% 0 in
07:48 54.7 °F 55.4 °F 29.9 in SSW 9.8 mph 9.8 mph 98% 0 in
07:53 54.7 °F 55.4 °F 29.9 in SSW 9.8 mph 9.8 mph 98% 0 in
07:58 54.7 °F 55.4 °F 29.9 in SSW 9.8 mph 9.8 mph 98% 0 in
08:03 54.9 °F 55.4 °F 29.9 in SSW 9.8 mph 9.8 mph 98% 0 in
08:08 54.9 °F 55.4 °F 29.9 in SSW 9.8 mph 9.8 mph 98% 0 in
08:13 54.7 °F 55.4 °F 29.9 in SSW 9.8 mph 9.8 mph 98% 0 in
08:18 54.7 °F 55.4 °F 29.9 in SSW 9.8 mph 9.8 mph 98% 0 in
08:23 54.7 °F 55.4 °F 29.9 in SSW 9.8 mph 9.8 mph 98% 0 in
08:28 54.9 °F 55.4 °F 29.9 in SSW 9.8 mph 9.8 mph 98% 0 in
08:33 54.7 °F 55.4 °F 29.9 in SSW 9.8 mph 9.8 mph 98% 0 in
08:38 54.9 °F 55.4 °F 29.9 in SSW 9.8 mph 9.8 mph 98% 0 in
08:43 54.9 °F 55.4 °F 29.9 in SSW 9.8 mph 9.8 mph 98% 0 in
08:48 55 °F 55.4 °F 29.9 in SSW 9.8 mph 9.8 mph 98% 0 in
09:09 55 °F 55.4 °F 29.9 in SSW 9.8 mph 9.8 mph 98% 0 in
09:14 55.2 °F 55.4 °F 29.9 in SSW 9.8 mph 9.8 mph 98% 0 in
09:26 32 °F 55.4 °F 29.9 in Calm     0% 0 in
09:31 32 °F 55.4 °F 29.9 in Calm     0% 0 in
09:36 32 °F 55.4 °F 29.9 in Calm     0% 0 in
09:47 32 °F 55.4 °F 29.9 in Calm     0% 0 in
09:52 32 °F 55.4 °F 29.9 in Calm     0% 0 in
09:57 32 °F 55.4 °F 29.9 in Calm     0% 0 in
10:07 32 °F 55.4 °F 29.9 in Calm     0% 0 in
10:22 55.9 °F 55.4 °F 29.9 in Calm     97% 0 in
10:27 55.9 °F 55.4 °F 29.9 in South 13 mph 19.5 mph 97% 0 in
10:32 56.1 °F 55.4 °F 29.9 in SSW 13.2 mph 19.5 mph 96% 0 in
10:37 56.3 °F 55.4 °F 29.9 in South 12.5 mph 16.3 mph 96% 0 in
10:42 56.3 °F 55.4 °F 29.9 in SSW 9.8 mph 16.3 mph 96% 0 in
10:47 56.3 °F 55.4 °F 29.9 in SSW 14.8 mph 23.3 mph 96% 0 in
10:52 56.3 °F 55.4 °F 29.9 in SW 6.5 mph 23.3 mph 96% 0 in
10:57 56.3 °F 55.4 °F 29.9 in SSW 11.9 mph 17.4 mph 96% 0 in
11:02 56.8 °F 55.4 °F 29.9 in WSW 13.9 mph 21.3 mph 94% 0 in
11:07 56.8 °F 55.4 °F 29.9 in South 11 mph 21.3 mph 94% 0 in
11:12 57.6 °F 55.4 °F 29.9 in SSW 12.8 mph 19.9 mph 92% 0 in
11:17 57.6 °F 55.4 °F 29.9 in SSW 11 mph 20.1 mph 92% 0 in
11:22 58.3 °F 55.4 °F 29.9 in SSW 14.8 mph 20.1 mph 91% 0 in
11:27 58.5 °F 55.4 °F 29.9 in SSW 11 mph 24.4 mph 90% 0 in
11:32 58.1 °F 55.4 °F 29.9 in SSW 15.4 mph 24.4 mph 89% 0 in
11:37 58.1 °F 55.4 °F 29.9 in South 13.2 mph 23.7 mph 88% 0 in
11:42 58.5 °F 55.4 °F 29.9 in South 13.2 mph 23.7 mph 88% 0 in
11:47 58.5 °F 55.4 °F 29.9 in SSW 24.2 mph 24.2 mph 87% 0 in
11:52 58.3 °F 55.4 °F 29.9 in South 19.9 mph 25.9 mph 87% 0 in
11:57 58.1 °F 55.4 °F 29.9 in SSW 15.4 mph 25.9 mph 88% 0 in
12:02 58.1 °F 55.4 °F 29.9 in SSW 16.3 mph 25.7 mph 89% 0 in
12:07 58.1 °F 55.4 °F 29.9 in SSW 10.1 mph 25.7 mph 90% 0 in
12:12 58.3 °F 55.4 °F 29.9 in SSW 11.2 mph 22.8 mph 90% 0 in
12:17 58.5 °F 55.4 °F 29.9 in SSW 19.7 mph 26.8 mph 89% 0 in
12:22 58.3 °F 55.4 °F 29.9 in WSW 23 mph 26.8 mph 89% 0 in
12:27 58.5 °F 55.4 °F 29.9 in SSW 14.1 mph 23 mph 89% 0 in
12:32 58.6 °F 55.4 °F 29.8 in SW 16.6 mph 26.2 mph 87% 0 in
12:38 58.8 °F 55.4 °F 29.8 in SSW 17.7 mph 26.2 mph 86% 0 in
12:43 58.8 °F 55.4 °F 29.8 in SSW 15.9 mph 24.4 mph 85% 0 in
12:48 58.8 °F 55.4 °F 29.9 in SSW 15.2 mph 24.2 mph 84% 0 in
12:53 58.6 °F 53.6 °F 29.9 in SW 24.6 mph 24.6 mph 84% 0 in
12:58 58.6 °F 53.6 °F 29.9 in SSW 17.7 mph 25.1 mph 83% 0 in
13:03 58.6 °F 53.6 °F 29.9 in SSW 12.5 mph 25.1 mph 83% 0 in
13:08 58.6 °F 53.6 °F 29.9 in SSW 17.2 mph 25.1 mph 83% 0 in
13:13 58.6 °F 53.6 °F 29.9 in South 22.1 mph 25.1 mph 83% 0 in
13:18 58.3 °F 53.6 °F 29.9 in South 20.6 mph 24.4 mph 82% 0 in
13:23 58.1 °F 53.6 °F 29.9 in SSW 19.5 mph 27.3 mph 81% 0 in
13:28 57.9 °F 51.8 °F 29.9 in WSW 14.8 mph 29.5 mph 81% 0 in
13:33 58.1 °F 53.6 °F 29.9 in SSW 23.5 mph 29.5 mph 81% 0 in
13:38 58.1 °F 53.6 °F 29.9 in SW 15.4 mph 25.5 mph 81% 0 in
13:43 58.1 °F 53.6 °F 29.9 in SSW 15.4 mph 25.5 mph 80% 0 in
13:48 58.3 °F 51.8 °F 29.8 in SSW 24.2 mph 32.2 mph 78% 0 in
13:53 58.3 °F 51.8 °F 29.8 in SW 23.7 mph 32.2 mph 79% 0 in
13:58 58.1 °F 51.8 °F 29.8 in SW 24.6 mph 26.4 mph 78% 0 in
14:03 58.1 °F 51.8 °F 29.8 in SSW 26.6 mph 26.6 mph 78% 0 in
14:08 57.9 °F 51.8 °F 29.8 in SSW 17.4 mph 26.6 mph 79% 0 in
14:13 57.9 °F 51.8 °F 29.8 in SW 17.4 mph 26.6 mph 78% 0 in
14:18 57.9 °F 51.8 °F 29.8 in SSW 17 mph 24.4 mph 78% 0 in
14:23 57.7 °F 51.8 °F 29.8 in SW 17.4 mph 24.4 mph 78% 0 in
14:28 57.6 °F 51.8 °F 29.8 in SSW 16.8 mph 23.3 mph 78% 0 in
14:33 57.6 °F 51.8 °F 29.8 in SW 23.9 mph 23.9 mph 77% 0 in
14:38 57.6 °F 51.8 °F 29.8 in SW 32.7 mph 32.7 mph 77% 0 in
14:43 57.4 °F 50 °F 29.8 in SW 23.5 mph 32.7 mph 77% 0 in
14:49 57.4 °F 50 °F 29.8 in SSW 17.7 mph 23.9 mph 78% 0 in
14:54 57.4 °F 50 °F 29.8 in South 24.2 mph 24.2 mph 78% 0 in
14:59 57.4 °F 50 °F 29.8 in SW 17.9 mph 24.2 mph 78% 0 in
15:04 57.6 °F 51.8 °F 29.8 in SSW 14.1 mph 24.2 mph 77% 0 in
15:19 57.4 °F 50 °F 29.8 in SSW 15.2 mph 18.8 mph 76% 0 in
15:24 57.4 °F 50 °F 29.8 in SSW 13 mph 18.8 mph 76% 0 in
15:34 57.2 °F 50 °F 29.8 in SSW 12.8 mph 23 mph 75% 0 in
15:39 57.2 °F 50 °F 29.8 in SSW 17.9 mph 23 mph 75% 0 in
15:44 57.2 °F 50 °F 29.8 in SW 14.8 mph 19.9 mph 75% 0 in
15:49 57.2 °F 50 °F 29.8 in SSW 15.2 mph 19.9 mph 75% 0 in
15:54 57.2 °F 50 °F 29.8 in SW 19.2 mph 20.4 mph 75% 0 in
15:59 57.2 °F 50 °F 29.8 in WSW 17.4 mph 20.8 mph 74% 0 in
16:04 57.2 °F 50 °F 29.8 in SW 14.5 mph 22.4 mph 74% 0 in
16:09 57.2 °F 50 °F 29.8 in SW 9.6 mph 23.5 mph 74% 0 in
16:19 57.2 °F 50 °F 29.8 in South 10.1 mph 21.9 mph 74% 0 in
16:24 57 °F 48.2 °F 29.8 in South 15.4 mph 19.5 mph 73% 0 in
16:29 57 °F 48.2 °F 29.8 in SW 17 mph 22.6 mph 73% 0 in
16:34 57 °F 48.2 °F 29.8 in SW 10.7 mph 22.6 mph 73% 0 in
16:39 56.8 °F 48.2 °F 29.8 in SW 9.8 mph 22.6 mph 74% 0 in
16:44 56.8 °F 48.2 °F 29.8 in SSW 10.3 mph 17.9 mph 73% 0 in
16:49 56.8 °F 48.2 °F 29.8 in SW 12.3 mph 17.9 mph 74% 0 in
16:54 56.7 °F 48.2 °F 29.8 in SSW 17.7 mph 17.7 mph 74% 0 in
16:59 56.7 °F 48.2 °F 29.8 in SSW 12.3 mph 17.7 mph 74% 0 in
17:04 56.5 °F 48.2 °F 29.8 in SSW 11 mph 17.7 mph 74% 0 in
17:09 56.5 °F 48.2 °F 29.8 in SSW 15.2 mph 15.2 mph 74% 0 in
17:14 56.3 °F 48.2 °F 29.8 in SSW 11.2 mph 15.2 mph 74% 0 in
17:30 56.1 °F 48.2 °F 29.8 in SSW 12.3 mph 20.1 mph 75% 0 in
17:35 55.9 °F 48.2 °F 29.8 in SSW 9.8 mph 17.2 mph 75% 0 in
17:40 55.9 °F 48.2 °F 29.8 in SSW 8.7 mph 14.3 mph 76% 0 in
17:45 55.6 °F 48.2 °F 29.8 in SW 12.8 mph 17.9 mph 77% 0 in
17:50 55.6 °F 48.2 °F 29.8 in SSW 10.7 mph 19.5 mph 77% 0 in
17:55 55.4 °F 48.2 °F 29.8 in SSW 10.1 mph 19.5 mph 77% 0 in
18:00 55.4 °F 48.2 °F 29.8 in South 8.7 mph 17.9 mph 77% 0 in
18:05 55.2 °F 48.2 °F 29.8 in South 10.7 mph 19.9 mph 78% 0 in
18:10 55.2 °F 48.2 °F 29.8 in SSW 16.8 mph 19.9 mph 78% 0 in
18:15 55.2 °F 48.2 °F 29.8 in SSW 10.7 mph 19.5 mph 78% 0 in
18:20 55.2 °F 48.2 °F 29.8 in South 14.8 mph 22.1 mph 78% 0 in
18:25 55.2 °F 48.2 °F 29.8 in South 15.7 mph 22.1 mph 78% 0 in
18:40 55 °F 48.2 °F 29.8 in SSW 17.9 mph 22.6 mph 78% 0 in
18:45 55 °F 48.2 °F 29.7 in South 12.8 mph 22.6 mph 78% 0 in
18:55 55 °F 48.2 °F 29.7 in SW 12.3 mph 17.4 mph 78% 0 in
19:00 55 °F 48.2 °F 29.8 in SW 15.9 mph 17.7 mph 78% 0 in
19:11 55 °F 48.2 °F 29.8 in SW 10.5 mph 22.4 mph 78% 0 in
19:21 55 °F 48.2 °F 29.7 in SSW 13 mph 22.1 mph 78% 0 in
19:30 55 °F 48.2 °F 29.8 in SSE 18.1 mph 18.8 mph 78% 0 in
19:36 54.9 °F 50 °F 29.8 in SW 12.3 mph 18.8 mph 80% 0 in
19:41 54.5 °F 50 °F 29.8 in SSW 16.8 mph 17.7 mph 82% 0 in
19:51 54.5 °F 50 °F 29.8 in SSW 8.9 mph 19.2 mph 82% 0 in
19:56 54.5 °F 50 °F 29.8 in SSW 12.3 mph 20.1 mph 82% 0 in
20:01 54.7 °F 50 °F 29.7 in SSW 19.9 mph 21.9 mph 81% 0 in
20:06 54.9 °F 50 °F 29.7 in SSW 17 mph 21.9 mph 80% 0 in
20:11 55 °F 50 °F 29.7 in SSW 17.4 mph 19.2 mph 80% 0 in
20:16 54.9 °F 50 °F 29.8 in SW 16.8 mph 22.6 mph 81% 0 in
20:21 54.7 °F 50 °F 29.8 in SSW 12.8 mph 22.6 mph 81% 0 in
20:26 54.7 °F 50 °F 29.8 in SSW 17.2 mph 19.5 mph 81% 0 in
20:31 54.5 °F 50 °F 29.8 in WSW 17.4 mph 19.2 mph 83% 0 in
20:36 52 °F 46.4 °F 29.8 in WSW 8.1 mph 17.7 mph 81% 0.01 in
20:41 50.2 °F 44.6 °F 29.8 in West 3.1 mph 17.7 mph 83% 0.05 in
20:46 49.3 °F 46.4 °F 29.8 in WSW 4.9 mph 8.1 mph 85% 0.06 in
20:51 48.7 °F 44.6 °F 29.8 in WNW 7.4 mph 7.4 mph 86% 0.07 in
21:01 48 °F 46.4 °F 29.8 in WNW 6.3 mph 8.7 mph 91% 0.09 in
21:06 47.7 °F 46.4 °F 29.8 in WNW 8.7 mph 8.7 mph 92% 0.1 in
21:11 47.5 °F 46.4 °F 29.8 in WNW 2.2 mph 8.7 mph 92% 0.1 in
21:16 47.3 °F 46.4 °F 29.8 in NW 6 mph 12.5 mph 94% 0.1 in
21:21 47.3 °F 46.4 °F 29.8 in WSW 2.9 mph 13.2 mph 94% 0.11 in
21:31 47.1 °F 46.4 °F 29.8 in Calm   11.2 mph 95% 0.11 in
21:36 46.9 °F 46.4 °F 29.8 in SSW 4.3 mph 11.2 mph 96% 0.1 in
21:41 46.9 °F 46.4 °F 29.8 in West 5.8 mph 9.6 mph 96% 0.07 in
21:46 46.9 °F 46.4 °F 29.8 in WSW 5.6 mph 9.6 mph 97% 0.06 in
21:51 46.9 °F 46.4 °F 29.8 in West 9.2 mph 9.2 mph 97% 0.05 in
21:57 46.9 °F 48.2 °F 29.8 in West 5.6 mph 9.2 mph 98% 0.03 in
22:02 46.9 °F 48.2 °F 29.9 in West 5.6 mph 9.2 mph 98% 0.03 in
22:07 46.9 °F 48.2 °F 29.9 in WSW 6 mph 6 mph 98% 0.02 in
22:12 46.9 °F 48.2 °F 29.9 in WSW 6 mph 6 mph 98% 0.02 in
22:17 46.9 °F 48.2 °F 29.9 in WSW 6 mph 6 mph 98% 0.02 in
22:22 46.9 °F 48.2 °F 29.9 in WSW 8.7 mph 8.7 mph 98% 0.01 in
22:27 46.9 °F 48.2 °F 29.9 in WSW 8.7 mph 8.7 mph 98% 0.02 in
22:32 46.9 °F 48.2 °F 29.8 in WSW 8.5 mph 8.7 mph 98% 0.02 in
22:37 46.9 °F 48.2 °F 29.8 in WSW 6.9 mph 12.5 mph 98% 0.02 in
22:42 46.9 °F 48.2 °F 29.8 in WSW 8.5 mph 11.4 mph 98% 0.01 in
22:47 46.9 °F 48.2 °F 29.9 in WSW 12.5 mph 13.2 mph 98% 0.01 in
22:52 46.8 °F 46.4 °F 29.9 in WSW 14.1 mph 14.1 mph 98% 0.01 in
22:55 46.8 °F 46.4 °F 29.9 in WSW 10.3 mph 14.1 mph 98% 0.01 in
23:00 46.8 °F 46.4 °F 29.9 in West 8.1 mph 14.1 mph 98% 0.01 in
23:05 46.8 °F 46.4 °F 29.9 in WSW 12.3 mph 13 mph 98% 0.01 in
23:10 46.8 °F 46.4 °F 29.9 in WSW 12.8 mph 15.2 mph 98% 0.01 in
23:15 46.8 °F 46.4 °F 29.9 in WSW 8.5 mph 17.7 mph 98% 0.01 in
23:20 46.6 °F 46.4 °F 29.9 in WSW 8.7 mph 17.7 mph 98% 0.01 in
23:25 46.6 °F 46.4 °F 29.9 in WSW 8.5 mph 13 mph 98% 0 in
23:31 46.6 °F 46.4 °F 29.9 in West 8.1 mph 11 mph 98% 0 in
23:36 46.4 °F 46.4 °F 29.9 in WSW 7.4 mph 11 mph 98% 0 in
23:41 46.4 °F 46.4 °F 29.9 in SSW 10.5 mph 11 mph 98% 0 in
23:46 46.4 °F 46.4 °F 29.9 in WSW 8.5 mph 12.1 mph 98% 0 in
23:51 46.4 °F 46.4 °F 29.9 in SW 8.5 mph 12.1 mph 98% 0 in
23:56 46.2 °F 46.4 °F 29.9 in WSW 7.6 mph 10.5 mph 98% 0 in
Données Historique de Météo Turbie

Mise a jour : 25/05/2018 07:04:14
Généré par Cumulus 1.9.4 (1099)